Regional Weather Roundup
Issued by NWS

Home | Current Version | Previous Version | Text Only | Print | Product List | Glossary On
Versions: 1 2 3 4 5 6 7 8 9 10 11 12 13 14 15 16 17 18 19 20 21 22 23 24 25 26 27 28 29 30 31 32 33 34 35 36 37 38 39 40 41 42 43 44 45 46 47 48 49 50
291
ASUS43 KDTX 232110
RWRMI
MICHIGAN HOURLY REGIONAL WEATHER ROUNDUP
NATIONAL WEATHER SERVICE DETROIT/PONTIAC MI
400 PM EST FRI FEB 23 2018

NOTE: "FAIR" INDICATES FEW OR NO CLOUDS BELOW 12,000 FEET WITH NO
SIGNIFICANT WEATHER AND/OR OBSTRUCTION TO VISIBILITY.

MIZ047>049-052>055-059>063-066>070-074>076-081>083-232200-
SOUTHEAST LOWER MICHIGAN

CITY           SKY/WX    TMP DP  RH WIND       PRES   REMARKS
ADRIAN         CLOUDY    47  44  90 W10       30.14R
ALMA           CLOUDY    41  40  97 W14G21    30.09R
ANN ARBOR      CLOUDY    47  44  90 W14       30.11R
BAD AXE        CLOUDY    42  41  98 W14G24    30.04R
CARO           CLOUDY    44  42  93 W10G18    30.05S
DETROIT CITY   CLOUDY    48  45  89 W9        30.09R
DETROIT        CLOUDY    50  45  83 W14       30.11R
FLINT          CLOUDY    45  42  89 W17       30.08R
GROSSE ILE     CLOUDY    48  46  90 W8G16     30.10R
HILLSDALE      CLOUDY    45  43  93 W13G26    30.13R FOG
HOWELL         CLOUDY    45  43  94 W13G20    30.09S

CITY           SKY/WX    TMP DP  RH WIND       PRES   REMARKS
JACKSON        CLOUDY    45  42  89 SW17      30.12R
LAMBERTVILLE   CLOUDY    49  46  88 W13G18    30.13S
LANSING        CLOUDY    43  41  93 W22       30.11R
LAPEER         CLOUDY    46  43  90 W13       30.06S
MASON          CLOUDY    45  40  83 W12G18    30.11R
MONROE         CLOUDY    49  46  89 W15G21    30.11S
MT. CLEMENS    CLOUDY    48  48 100 W13       30.06R
PONTIAC        CLOUDY    45  43  93 W13       30.07R
PORT HOPE        N/A     41  39  93 W10G20    30.02R
PORT HURON     CLOUDY    46  43  87 SW5       30.06R
TRI CITIES     CLOUDY    43  40  89 W16       30.06R
MIDLAND        CLOUDY    43  40  88 W15       30.06R
TROY           CLOUDY    48  44  85 W12G20    30.10R
SAGINAW HB     CLOUDY    43  41  93 W13       30.06S
$$
MIZ043>046-050>051-056>058-064>065-071>073-077>080-232200-
SOUTHWEST LOWER MICHIGAN

CITY           SKY/WX    TMP DP  RH WIND       PRES   REMARKS
BATTLE CREEK   CLOUDY    43  41  93 W15G22    30.14R
BENTON HARBOR  CLOUDY    40  36  86 W13       30.18F WCI  32
BIG RAPIDS     CLOUDY    38  34  88 W8        30.07S WCI  32
COLDWATER      CLOUDY    45  45 100 W13       30.14S FOG
FREMONT        CLOUDY    38  33  84 W10       30.12R WCI  31
HOLLAND        CLOUDY    40  37  89 W14       30.16R WCI  32
GRAND RAPIDS   CLOUDY    41  39  93 W17       30.13R FOG
IONIA          CLOUDY    42  40  95 W10G16    30.10R
KALAMAZOO      CLOUDY    43  40  89 W10G18    30.16R FOG
LUDINGTON      CLOUDY    37  34  87 W9        30.10R WCI  31
MARSHALL       CLOUDY    43  43  98 W16G23    30.13R
MOUNT PLEASANT CLOUDY    42  39  89 W12G18    30.06R
MUSKEGON       CLOUDY    39  35  86 W8        30.14R WCI  33
SOUTH HAVEN    CLOUDY    39  37  91 W9G16     30.18S WCI  33
$$
MIZ016>042-232200-
NORTHERN LOWER MICHIGAN

CITY           SKY/WX    TMP DP  RH WIND       PRES   REMARKS
ALPENA         CLOUDY    42  37  82 W7        29.99R
BEAVER ISLAND  CLOUDY    35  33  93 W15       30.00R WCI  25
BELLAIRE       CLOUDY    38  36  94 SW3       30.04R
CADILLAC       CLOUDY    36  35  96 W10G20    30.03R WCI  28
CHARLEVOIX     CLOUDY    37  36  93 W18G28    30.05R WCI  27
FRANKFORT      CLOUDY    39  35  86 W10       30.07R WCI  32
GAYLORD        CLOUDY    35  35 100 W16G23    29.97R WCI  25
GRAYLING       CLOUDY    37  36  97 W10       30.00R WCI  30
HARBOR SPRINGS CLOUDY    36  35  96 W15G26    29.99R WCI  26
HOUGHTON LAKE  CLOUDY    37  35  92 W9        30.02R WCI  30
MANISTEE       CLOUDY    38  33  82 W9        30.08R WCI  31
OSCODA         CLOUDY    42  38  85 W14       30.01R
PELLSTON       CLOUDY    37  33  85 W17G25    29.98R WCI  27
ROGERS CITY    CLOUDY    38  36  91 W9        29.99R WCI  32
TRAVERSE CITY  CLOUDY    40  34  79 W12       30.04R WCI  33
$$
MIZ007>008-015-232200-
EASTERN UPPER MICHIGAN

CITY           SKY/WX    TMP DP  RH WIND       PRES   REMARKS
KINROSS        CLOUDY    35  34  96 W8        29.95R WCI  29
MACKINAC ISLAN CLOUDY    33  33 100 W14G22    29.97R FOG     WCI  24
NEWBERRY       CLOUDY    35  33  94 W7        29.96R WCI  29
S. S. MARIE    CLOUDY    37  33  85 W8        29.94R WCI  31
MUNISING         N/A     33  30  88 N12       29.99R WCI  24
$$
MIZ004>006-011>014-085-232200-
CENTRAL UPPER MICHIGAN

CITY           SKY/WX    TMP DP  RH WIND       PRES   REMARKS
MANISTIQUE     CLOUDY    36  34  93 W5        29.99R WCI  32
ESCANABA       CLOUDY    38  30  73 W13G22    30.01R WCI  30
MENOMINEE      CLOUDY    38  30  73 W9        30.04R WCI  31
SAWYER-GWINN   CLOUDY    32  28  86 W8        29.97R WCI  25
$$
MIZ001>003-009>011-084-232200-
WESTERN UPPER MICHIGAN

CITY           SKY/WX    TMP DP  RH WIND       PRES   REMARKS
IRON MOUNTAIN  CLOUDY    35  27  72 W17G26    29.99R WCI  25
HOUGHTON       CLOUDY    29  24  82 W21G29    30.00R WCI  16
COPPER HARBOR    N/A     32  26  78 NW15G23   29.99R WCI  22
IRONWOOD       FLURRIES  30  23  75 W15       30.07R WCI  19
$$

ABBREVIATIONS USED IN REMARKS
   TC - TEMPERATURE IN CELSIUS
  WCI - WIND CHILL INDEX
   HX - HEAT INDEX
  VSB - VISIBILITY





USA.gov is the U.S. government's official web portal to all federal, state and local government web resources and services.